Theta_e
358 363 365 364 363 365 365 365 364 362 360 359 360 361 361 361 362 363 363 363 363 363 362 363 362 361 361 358 358 360 362 362 358 357 355 353 350 348 346 345 344 342 343
361 363 364 364 363 364 364 365 364 362 360 360 360 361 361 361 362 363 363 363 364 362 362 361 361 361 360 360 360 360 360 362 361 357 354 352 350 348 347 346 345 343 342
362 364 363 364 363 363 363 364 364 363 362 362 361 361 361 362 362 362 362 363 364 361 361 361 361 360 359 359 360 360 361 359 361 357 351 349 348 348 346 346 344 342 341
364 364 363 363 363 361 362 362 363 363 363 363 362 362 362 362 362 362 362 363 363 359 358 359 360 360 360 359 359 359 359 360 359 357 355 349 346 347 346 345 343 342 340
363 364 364 362 363 361 360 361 362 362 362 363 363 363 363 362 362 361 362 363 362 358 356 358 361 361 360 358 357 357 355 354 358 357 356 350 347 346 345 344 342 341 340
360 363 364 361 361 361 360 359 361 362 362 362 363 362 362 362 362 361 362 362 360 359 358 357 359 359 358 356 354 352 351 349 351 355 355 348 347 346 345 344 342 340 339
359 362 364 362 361 361 360 359 360 361 361 362 362 362 362 362 361 361 361 361 361 360 358 356 357 356 355 354 352 349 350 350 349 354 354 349 348 347 344 343 341 339 338
360 363 363 363 361 361 361 360 360 360 361 361 361 362 362 361 361 361 361 361 361 361 359 357 356 353 352 351 350 349 350 351 350 354 353 349 347 346 343 342 341 339 337
363 362 363 363 364 361 361 360 360 360 360 360 360 360 360 360 360 361 361 361 362 360 359 357 355 352 350 349 348 348 349 349 347 353 350 349 348 346 343 342 340 338 337
361 361 362 363 362 361 361 360 360 359 359 359 359 359 359 359 360 360 359 360 361 360 358 357 355 352 349 348 347 346 346 350 346 352 352 349 349 346 344 342 339 338 337
359 360 361 359 359 361 360 360 360 359 358 359 358 358 356 354 355 356 355 359 360 359 357 355 354 351 349 346 345 344 345 342 344 349 351 348 348 346 344 342 339 338 337
352 360 361 360 359 358 358 361 359 359 357 356 356 356 352 352 353 352 354 357 358 358 357 355 353 350 346 342 340 342 340 340 341 347 350 349 349 347 344 342 339 337 337
330 353 360 362 361 359 357 359 358 357 356 357 357 357 355 352 352 352 350 352 354 356 352 353 352 347 344 342 339 338 339 341 344 347 349 351 350 347 344 342 340 338 337
316 320 342 361 363 359 357 357 358 355 357 355 355 357 354 351 350 350 349 350 353 351 351 353 350 348 346 343 339 336 336 342 343 347 349 351 351 348 345 342 340 338 336
316 318 321 333 360 361 355 358 360 357 356 357 356 357 355 350 349 349 349 349 350 351 350 351 349 347 344 341 339 337 337 341 343 347 349 351 351 348 345 343 340 338 335
319 320 321 322 340 358 355 360 360 359 359 358 357 357 355 354 350 348 348 348 349 351 350 350 349 346 344 341 338 339 339 343 346 348 350 353 350 349 346 343 341 338 336
320 322 322 323 330 348 355 360 360 360 359 358 357 358 356 354 351 347 348 347 348 350 351 352 351 348 345 342 341 343 343 345 347 350 351 352 348 348 347 343 341 338 337
321 321 324 322 322 341 352 355 359 359 359 358 358 356 355 355 352 346 349 347 348 349 349 348 348 345 344 343 341 343 344 347 348 350 351 351 347 343 345 345 341 336 338
322 323 323 324 322 328 350 352 357 358 356 358 358 354 354 354 351 346 351 349 351 348 347 347 346 346 343 344 341 343 346 348 348 348 350 348 346 345 343 343 341 339 336
320 323 324 326 324 324 332 351 351 353 354 354 356 353 352 354 351 346 347 350 350 347 346 346 347 347 346 346 340 344 349 351 350 350 348 345 344 343 341 340 338 335 330
319 319 322 323 328 320 326 338 342 342 347 351 354 357 357 356 354 351 346 344 349 347 347 349 348 348 344 345 342 342 342 343 345 345 345 342 340 338 338 339 338 328 323
315 316 318 320 325 326 320 336 342 344 347 350 351 355 356 356 355 352 351 346 346 345 348 348 348 344 345 345 340 340 334 330 330 332 336 337 335 336 333 330 324 317 317
313 314 315 318 321 325 329 325 345 347 348 347 348 348 351 355 357 355 354 352 348 348 342 348 348 347 341 344 347 339 333 330 334 327 325 327 331 328 325 317 314 314 317
311 312 313 315 316 319 326 328 331 335 336 340 344 346 350 354 355 356 356 353 352 349 347 343 344 348 348 341 344 345 346 342 333 324 323 321 324 321 317 312 313 315 316
311 311 311 314 316 316 320 324 327 331 335 339 342 348 352 353 353 353 355 353 351 350 350 348 342 343 347 346 343 342 342 339 339 330 319 314 315 313 311 311 313 313 315
311 311 311 312 313 314 316 319 322 327 331 335 340 341 343 345 349 351 353 353 351 351 350 349 342 341 345 349 348 346 341 336 333 327 323 320 313 308 310 312 314 314 314
Wind_Speed
8 11 10 10 9 11 13 16 17 16 16 17 18 19 20 19 18 17 16 14 13 13 14 15 15 13 13 13 11 9 8 9 11 12 12 12 11 11 10 9 8 12 12
13 13 11 9 9 10 12 15 16 16 16 16 17 18 19 19 19 17 16 14 13 14 13 14 16 14 13 12 10 9 9 8 10 11 12 12 11 11 10 11 12 12 12
14 14 14 11 10 9 10 13 14 15 15 16 16 16 16 16 17 16 15 13 13 14 13 13 14 14 13 11 10 8 8 8 8 10 8 7 10 10 11 11 11 12 12
13 12 12 11 11 10 11 11 12 13 13 14 15 16 15 15 15 15 14 13 13 13 14 13 14 13 12 11 9 8 7 7 7 9 6 6 8 9 10 10 10 11 11
12 11 11 11 9 10 10 11 12 12 12 13 14 15 15 15 14 14 14 12 12 14 14 14 12 12 11 10 8 6 5 4 7 9 6 6 6 9 9 9 10 11 12
11 10 11 11 10 10 9 10 11 12 12 13 13 14 15 14 14 12 12 12 11 12 12 12 11 11 10 8 6 5 3 2 7 7 6 7 5 10 10 10 11 11 11
9 9 12 12 12 12 11 10 10 10 10 12 12 13 13 13 12 12 11 10 10 11 10 11 10 9 9 7 6 4 3 3 4 7 7 6 8 9 10 11 11 10 10
5 6 7 9 9 9 12 12 11 9 9 9 11 12 13 12 11 11 11 10 9 9 10 10 8 8 8 7 5 4 4 3 5 7 7 6 10 10 10 11 10 10 10
5 5 6 7 8 7 8 9 11 11 11 11 10 10 11 12 12 11 10 10 9 9 9 9 8 7 7 6 5 4 4 5 4 5 6 5 10 10 11 11 10 10 9
5 5 6 5 7 7 8 9 10 10 11 11 10 10 10 10 10 10 9 9 9 8 7 7 7 6 6 6 5 3 3 5 3 6 5 5 11 11 11 11 11 10 9
3 5 6 7 7 7 7 7 9 11 11 10 11 11 9 9 11 12 10 8 8 8 7 6 6 6 5 4 4 3 4 2 4 4 4 13 12 11 10 10 10 10 9
6 6 7 8 8 8 6 8 9 8 8 9 10 10 9 9 9 9 8 9 8 7 7 6 6 5 7 4 4 5 4 4 4 4 4 13 12 12 11 11 9 9 8
10 8 9 8 8 9 8 7 5 6 6 7 11 10 9 7 8 8 7 7 8 9 7 8 7 6 5 4 4 3 3 4 3 3 6 12 11 12 11 11 10 8 7
12 12 9 10 10 11 8 8 8 7 8 8 10 12 8 7 8 8 7 8 8 7 8 7 5 4 5 5 5 4 5 4 3 3 6 13 11 13 12 11 10 9 7
9 12 12 10 12 11 10 9 9 10 9 10 10 11 10 10 8 8 8 8 8 8 8 7 6 5 5 5 5 5 5 5 5 3 4 15 12 12 12 12 10 8 6
10 12 11 11 12 11 10 13 10 9 10 10 10 11 14 9 9 9 9 8 9 8 8 7 6 5 4 4 5 6 6 5 5 6 5 10 11 10 11 11 10 8 7
12 12 12 11 11 12 14 14 11 10 10 10 10 12 14 13 9 10 9 8 9 8 10 8 7 5 5 5 5 5 5 6 5 6 5 6 9 9 11 10 9 8 8
14 14 14 11 11 12 14 12 11 11 11 10 10 9 14 15 13 9 10 9 9 8 8 8 7 7 6 5 4 5 4 4 5 6 6 7 4 5 8 9 10 7 11
12 13 15 14 12 12 13 13 12 12 10 10 9 10 13 15 14 9 11 10 9 8 8 8 7 8 6 6 5 4 3 3 4 5 6 8 8 6 4 8 10 13 12
14 13 14 14 14 11 11 10 9 7 8 9 9 10 13 12 15 11 8 10 10 8 8 8 9 8 6 5 5 3 1 2 3 4 6 6 6 7 4 8 9 9 11
14 16 17 17 17 10 8 9 9 11 11 11 12 18 17 14 15 14 9 8 8 11 11 10 9 10 7 6 6 5 5 3 4 3 5 5 7 7 6 7 5 6 7
13 14 15 16 17 13 8 8 9 9 11 12 10 9 14 15 15 14 14 10 11 8 11 12 12 8 8 9 7 7 5 3 5 6 4 3 6 6 8 8 9 7 5
13 15 14 14 15 14 16 8 7 8 6 6 9 9 13 17 16 16 16 13 13 9 9 11 13 14 9 9 11 6 5 5 7 4 7 5 6 6 8 9 8 6 4
12 13 15 14 14 13 14 10 10 11 11 11 10 11 12 18 17 16 14 14 14 11 11 10 9 12 11 10 9 8 4 4 4 5 4 6 6 7 6 6 6 5 4
11 12 14 14 14 15 14 13 9 10 11 11 10 12 12 11 16 17 16 15 13 11 13 12 8 10 12 10 11 10 7 5 4 4 5 4 6 5 5 5 4 5 6
13 15 17 17 14 15 14 15 13 12 12 12 12 11 10 10 9 14 15 13 13 11 13 12 11 10 12 12 11 11 11 8 8 5 5 8 7 3 2 5 3 4 4
Wind_Direction
151 144 145 151 144 134 140 131 132 139 144 148 153 147 139 139 138 140 141 142 138 127 127 128 127 127 127 128 128 125 118 111 105 100 99 94 84 81 75 69 60 65 62
148 150 150 145 144 138 138 127 129 136 144 149 153 146 144 145 145 146 147 147 138 131 134 135 135 135 135 135 135 130 123 118 113 107 106 101 90 86 79 72 61 70 63
153 150 155 148 147 138 128 127 130 136 143 149 148 146 145 147 148 148 150 148 141 138 142 143 139 140 142 141 139 138 130 119 117 117 116 89 90 92 90 84 79 74 67
144 145 153 150 145 146 132 130 131 138 141 145 146 145 148 150 150 149 153 152 147 147 147 146 145 144 146 144 144 144 146 149 138 142 143 112 102 103 99 91 83 75 80
139 143 145 151 142 150 149 139 140 142 144 146 148 147 150 153 155 155 156 156 154 152 150 152 148 146 150 148 146 148 142 154 161 191 135 123 108 107 103 99 94 81 64
145 148 140 154 152 150 161 156 151 151 153 152 154 151 152 157 158 157 156 155 155 153 152 152 150 152 153 153 152 147 125 132 185 178 146 121 115 118 111 95 88 83 77
151 159 157 164 165 161 166 171 169 162 162 158 158 155 155 159 162 156 154 154 156 153 151 153 153 151 151 159 153 144 94 116 209 158 145 149 115 127 111 102 93 88 82
148 162 164 167 176 171 169 173 175 171 167 168 166 163 162 163 165 162 155 155 157 152 153 156 155 156 159 161 157 141 107 162 175 148 148 143 121 127 116 108 101 91 83
138 167 182 186 184 181 184 180 177 177 175 173 175 172 170 169 168 166 161 157 158 159 159 154 162 167 166 169 164 151 128 156 173 146 154 147 145 132 124 119 110 100 91
154 175 189 197 203 206 196 193 189 186 181 177 178 176 175 175 173 169 165 166 169 171 170 162 170 175 171 174 176 174 153 157 170 158 164 128 155 140 136 125 117 108 93
211 203 198 207 209 219 222 203 199 198 194 189 184 183 175 193 190 185 194 160 184 184 180 183 178 181 180 181 198 188 194 211 182 183 169 145 158 147 138 129 123 116 105
269 246 223 212 214 216 220 221 212 211 208 203 202 194 200 197 197 204 196 199 198 195 194 197 190 185 204 214 198 201 226 208 211 186 175 163 161 152 146 141 135 120 105
306 280 240 223 221 217 214 215 207 213 207 212 208 204 203 197 198 203 204 203 213 199 216 203 200 217 211 226 221 219 224 217 213 198 148 169 167 158 154 152 137 126 113
322 300 287 248 229 221 219 217 211 210 207 210 207 201 199 202 202 205 207 208 209 209 208 218 214 218 216 226 242 236 227 231 215 205 152 171 176 168 163 155 142 138 129
311 310 303 285 239 233 224 225 220 209 214 214 211 202 199 202 210 210 207 211 207 209 207 207 218 215 215 226 237 239 236 233 232 217 186 171 180 165 164 156 149 142 129
308 302 299 291 260 237 228 230 227 221 218 216 213 214 204 200 198 217 211 210 213 212 208 211 212 222 219 227 234 241 236 235 230 203 191 167 173 172 162 159 151 149 144
312 304 296 292 279 243 231 233 229 227 223 221 219 215 210 203 201 208 220 210 218 214 210 208 208 212 222 216 236 224 237 238 213 196 189 163 169 164 161 157 159 157 134
327 320 309 300 281 254 239 232 227 226 220 222 222 214 214 210 201 199 220 221 213 212 213 213 215 215 224 218 219 223 231 236 209 195 185 173 139 150 165 162 154 146 126
352 343 333 321 289 263 245 239 230 227 224 225 220 220 214 215 203 198 221 220 216 214 214 217 217 224 218 219 218 221 227 218 196 180 169 166 150 174 145 149 132 120 115
7 1 354 350 326 287 264 240 235 222 220 221 211 215 215 212 210 199 215 220 207 211 218 216 220 210 226 222 207 157 73 156 159 160 157 144 146 133 141 159 146 116 101
13 7 5 359 354 324 263 226 227 221 217 218 215 217 214 216 210 201 199 210 206 212 211 213 213 210 200 185 160 143 90 72 115 114 148 147 137 133 145 151 122 110 95
10 9 6 0 356 353 303 255 237 228 232 222 218 224 219 218 212 207 208 202 198 210 213 210 205 209 213 188 196 179 168 130 72 61 59 95 134 133 119 108 111 94 93
10 360 1 359 355 350 347 291 263 249 241 229 219 218 219 217 212 211 210 211 206 203 205 215 205 206 205 194 199 195 183 199 151 94 63 74 116 118 111 100 97 97 85
5 360 352 349 355 351 344 339 288 261 252 236 236 228 218 212 215 211 211 209 208 209 207 207 209 213 213 203 196 217 254 129 178 153 82 61 79 97 101 106 104 89 91
354 357 353 340 344 345 344 341 332 285 270 264 253 249 232 227 220 212 210 211 209 210 215 208 204 205 213 212 209 189 193 159 135 138 144 126 81 65 82 86 104 95 84
348 348 348 347 341 340 339 328 326 314 284 264 248 249 239 229 223 228 208 209 212 212 219 219 208 211 215 219 204 199 195 185 173 153 123 146 115 77 112 104 110 99 77